カタログに戻る

STARLINK-31891

運用中通信VLEO
NORAD 59854·PAYLOAD·🇺🇸 United States

打ち上げ May 23, 2024 から Cape Canaveral Space Force Station

Loading…

次のパス (今後24時間)

TLE

最新Source: CelesTrak SupGP

元期: Sep 14, 2026, 21:04 UTC

1 59854C 24097V   26257.87826389 -.00002308  00000+0 -83605-4 0  2573
2 59854  43.0005 286.1928 0001394 266.8559 234.9444 15.27573361    10

AllMySatでSTARLINK-31891をリアルタイム追跡

Download on the App Store